Lapse_Rate
-0.3 -0.4 -0.7 -0.7 -0.6 -0.7 -0.8 -1.0 -1.4 -1.7 -1.9 -2.7 -3.2 -3.2 -3.4 -3.8 -3.8 -3.2 -0.6 2.2 1.0 2.4 3.1 2.9 3.9 4.8 7.2 6.7 5.3 4.5 6.5 6.5 6.5 6.5 6.5 6.8 6.5 7.3 6.7 7.0 7.3 7.5 6.5 5.8 6.0
-0.6 -0.9 -0.9 -0.9 -0.8 -0.9 -1.2 -1.3 -1.5 -1.9 -2.2 -2.7 -3.0 -3.5 -3.4 -3.7 -3.6 -1.8 -0.3 1.6 1.0 1.4 3.9 4.2 4.7 6.1 5.3 5.6 5.0 6.0 6.5 6.5 6.5 6.5 6.5 6.6 6.5 6.7 6.8 6.8 6.9 5.3 5.8 6.1 5.9
-0.9 -0.9 -1.2 -1.1 -1.0 -1.2 -1.4 -1.5 -1.8 -2.2 -2.6 -3.2 -3.4 -3.2 -3.3 -3.7 0.7 2.1 1.9 0.8 1.3 1.6 4.2 5.0 5.8 6.9 6.0 5.6 5.9 6.2 6.5 6.5 6.6 6.9 6.4 6.6 6.6 7.0 6.5 6.5 6.2 6.0 6.0 6.2 5.7
-0.7 -0.9 -1.2 -1.2 -1.3 -1.4 -1.6 -1.7 -2.2 -2.7 -3.1 -3.5 -3.3 -3.0 -3.1 -2.8 6.5 5.7 1.9 1.0 1.4 1.5 4.5 5.4 5.7 6.1 6.3 6.5 5.7 6.5 6.6 6.8 6.8 6.3 6.8 6.5 6.8 6.8 6.3 5.9 6.3 5.0 5.1 6.1 5.6
-0.9 -1.2 -1.5 -1.7 -1.7 -1.9 -1.9 -1.9 -2.5 -3.1 -3.4 -3.4 -3.1 -3.2 -2.6 3.0 1.1 2.7 1.2 1.4 0.7 2.7 3.9 5.4 5.3 5.6 6.5 6.4 6.6 6.5 6.5 6.9 7.0 6.7 6.5 5.4 6.5 6.4 6.7 5.7 6.9 6.8 6.0 5.8 5.7
-1.1 -1.4 -1.5 -1.7 -1.9 -2.0 -2.1 -2.4 -3.1 -3.2 -3.5 -2.8 -2.9 -2.6 0.9 5.9 3.8 2.0 1.3 1.1 2.0 3.1 3.7 4.7 4.6 5.2 6.2 6.1 6.4 5.8 6.7 6.7 6.9 6.1 5.4 6.7 6.5 6.4 6.1 6.3 6.9 6.7 5.7 5.7 5.4
-1.0 -1.4 -1.7 -1.8 -2.1 -2.4 -2.7 -3.0 -3.5 -3.5 -3.3 -2.4 -2.6 -1.4 2.2 1.5 4.1 2.4 2.0 2.3 2.0 2.9 4.0 3.7 4.8 6.0 5.6 6.5 6.9 6.2 6.5 6.5 6.2 6.6 6.6 6.8 6.5 6.6 6.3 6.7 7.1 7.0 5.9 5.7 5.3
-1.3 -1.5 -1.7 -1.9 -2.1 -2.8 -3.5 -3.7 -4.0 -3.4 -2.9 -2.4 -2.0 -0.6 1.2 2.1 2.3 3.4 3.4 3.7 3.9 3.8 4.9 4.6 5.0 5.9 5.7 5.2 6.6 6.5 6.5 6.5 6.5 6.4 6.6 6.4 6.5 6.5 5.1 6.7 6.8 7.1 6.3 6.4 5.6
-1.5 -1.7 -2.0 -2.1 -2.6 -3.3 -4.0 -4.4 -4.0 -2.7 -1.9 -1.6 -1.4 1.3 2.6 3.3 3.7 3.0 3.7 4.2 3.0 3.9 4.3 6.6 6.5 4.8 5.5 6.5 6.5 6.5 6.5 6.5 6.5 6.4 6.5 6.5 6.6 6.4 5.8 6.8 6.5 6.9 6.6 6.5 6.1
-1.6 -2.0 -2.3 -2.5 -2.8 -3.9 -4.5 -4.7 -2.7 -2.0 -0.7 0.4 2.9 4.2 2.9 5.9 5.1 3.1 2.9 4.9 4.9 4.5 6.3 6.1 2.4 6.6 6.5 6.5 6.5 6.5 6.5 6.5 6.5 6.5 6.5 6.5 6.5 6.4 5.9 6.3 6.2 6.6 7.0 6.7 6.3
-1.7 -2.1 -2.6 -2.8 -3.1 -4.5 -5.4 -2.7 2.0 3.2 2.6 3.6 2.9 3.3 4.8 5.7 6.6 5.5 4.3 5.5 6.5 5.3 6.5 5.7 6.5 6.5 6.5 6.6 6.5 6.5 6.5 6.5 6.5 6.5 6.5 6.5 6.5 6.5 6.2 6.4 6.4 5.1 5.1 5.3 5.6
-1.8 -2.4 -2.8 -3.0 -4.1 -5.3 -5.5 2.2 5.9 6.6 5.3 3.1 3.9 4.5 6.0 6.1 6.1 6.0 5.1 5.8 5.7 6.5 6.4 6.5 6.5 6.5 6.5 6.5 6.5 6.5 6.5 6.5 6.5 6.5 6.5 6.5 6.5 6.5 6.3 6.3 6.3 6.3 5.7 5.1 4.8
-2.0 -2.7 -3.3 -3.8 -5.2 -5.1 -1.0 2.7 2.7 2.3 5.1 4.7 3.6 4.3 4.8 4.5 5.1 4.1 5.1 4.8 6.2 6.6 6.5 6.5 6.6 6.4 6.5 6.5 6.5 6.5 6.5 6.5 6.5 6.5 6.5 6.5 6.5 6.5 6.5 5.6 5.1 5.3 4.8 5.5 5.0
-2.0 -2.5 -3.5 -5.1 -1.2 -3.3 0.6 2.4 0.1 0.5 6.6 6.4 6.0 5.1 5.3 4.8 6.1 4.5 4.9 5.5 6.4 6.5 6.5 6.5 6.2 6.5 6.6 6.5 6.5 6.5 6.5 6.5 6.6 6.5 6.5 6.5 6.5 6.5 6.5 6.6 6.4 6.3 5.1 5.1 6.0
-2.2 -2.7 -4.1 -5.1 -4.9 -0.4 3.7 -2.0 -0.1 2.6 6.6 6.5 6.2 6.0 4.7 5.1 6.0 6.2 4.7 5.6 6.5 6.5 6.5 6.5 6.5 6.6 6.5 6.6 6.5 6.5 6.5 6.5 6.5 6.5 6.4 6.5 6.5 6.5 6.5 6.5 6.5 6.1 5.5 5.3 5.7
-3.0 -3.3 -4.9 -5.2 -6.3 -3.0 -2.0 -2.4 1.9 6.5 6.5 6.5 6.1 6.5 6.4 6.1 6.3 5.9 6.0 6.1 4.9 6.5 6.5 6.6 5.8 6.4 6.5 6.5 6.5 6.5 6.5 6.5 6.5 6.5 6.5 6.5 6.5 6.5 6.5 6.6 6.5 6.3 5.9 5.5 6.0
-3.9 -4.6 -5.8 -3.2 1.4 -1.1 -2.1 1.6 6.5 6.5 6.5 6.5 6.5 6.5 6.5 6.5 6.5 6.5 6.5 6.5 6.4 6.4 6.5 6.5 6.5 6.5 6.0 6.5 6.4 6.5 6.5 6.5 6.5 6.5 6.5 6.5 6.5 6.5 6.5 6.5 6.5 6.5 6.2 5.9 5.6
-4.9 -6.3 -5.8 -4.0 -3.4 -1.2 1.0 5.9 6.5 6.4 6.5 6.5 6.5 6.5 6.5 6.5 6.5 6.5 6.5 6.4 6.5 6.5 6.5 6.5 6.5 6.5 6.4 6.5 6.5 6.5 6.5 6.5 6.6 6.5 6.5 6.5 6.5 6.5 6.5 5.8 5.4 6.0 6.2 5.8 5.4
-5.6 -5.7 -5.0 -3.0 -4.0 -1.8 2.5 6.5 6.5 6.5 6.5 6.5 6.5 6.5 6.5 6.5 6.5 6.5 6.5 6.5 6.6 6.5 6.5 6.5 6.5 6.5 6.5 6.5 6.5 6.5 6.5 6.5 6.5 6.5 6.5 6.5 6.5 6.5 6.5 6.5 6.0 5.4 5.9 6.1 5.3
-6.6 -4.9 -0.9 -0.9 -0.9 1.0 5.4 6.5 6.5 6.4 6.5 6.5 6.5 6.5 6.5 6.5 6.5 6.5 6.5 6.5 6.5 6.5 6.1 6.5 6.5 6.5 6.5 6.3 6.4 6.5 6.5 6.5 6.5 6.5 6.6 6.6 6.5 6.5 6.5 6.5 6.5 6.5 5.2 5.1 5.5
-4.0 1.6 2.4 0.6 1.7 1.8 6.5 6.5 6.5 5.4 6.2 6.5 6.5 6.5 6.5 6.5 6.5 6.4 6.5 6.5 6.5 6.5 6.3 6.5 6.5 6.5 6.5 6.5 6.5 6.5 6.5 6.5 6.5 6.5 6.5 6.5 6.6 6.5 6.5 6.5 6.5 6.5 4.9 4.2 4.3
-3.7 6.4 2.4 2.3 4.6 4.8 6.5 6.5 5.2 6.0 5.5 6.4 6.5 6.5 6.6 6.5 6.5 6.5 6.5 6.5 5.6 6.3 6.6 6.5 6.5 6.5 6.5 6.5 6.5 6.5 6.5 6.5 6.5 6.5 6.5 6.5 6.5 6.5 6.5 6.5 5.8 4.9 3.6 2.4 2.8
-0.5 -0.8 1.6 3.9 6.5 6.5 6.1 6.5 6.5 6.5 6.5 6.6 6.5 6.5 6.5 6.5 6.4 6.5 6.5 6.3 5.5 6.5 6.5 6.5 6.5 6.6 6.5 6.5 6.5 6.5 6.5 6.5 6.5 6.5 6.5 6.6 6.5 6.5 6.6 6.6 5.7 4.2 2.6 1.0 1.1
0.7 6.5 2.0 1.0 2.7 6.5 6.5 6.5 6.5 6.0 6.3 6.1 6.5 6.3 6.5 6.5 6.5 6.5 6.5 6.5 6.0 6.1 5.7 5.6 6.5 6.5 6.6 6.5 6.5 6.5 6.5 6.5 6.5 6.5 6.5 6.5 6.5 6.5 6.5 6.5 6.3 4.8 4.3 2.4 1.9
1.5 5.8 5.6 6.5 6.0 6.4 6.4 6.5 6.5 6.5 5.8 5.1 6.5 6.5 6.4 6.5 6.5 6.5 6.5 6.5 6.4 5.3 5.8 6.5 6.5 6.5 6.5 6.5 6.5 6.5 6.5 6.5 6.5 6.4 6.5 6.4 6.5 6.5 6.5 6.5 6.1 3.9 2.5 3.0 2.4
3.9 4.6 3.0 4.3 4.5 6.4 6.5 6.6 6.5 6.5 6.5 6.5 6.5 6.4 6.5 6.5 6.5 6.5 6.5 6.5 6.5 6.5 6.5 6.5 6.5 6.5 6.5 6.5 6.5 6.5 6.5 6.5 6.5 6.5 6.5 6.5 6.4 6.5 5.8 5.3 5.1 4.5 4.9 4.5 3.7
1.1 3.1 4.0 4.9 6.0 6.5 6.5 6.5 6.5 6.5 6.1 6.3 6.4 6.5 6.5 6.4 5.5 4.9 4.5 4.6 6.1 6.5 6.5 6.5 6.5 6.5 6.6 6.5 6.5 6.5 6.5 6.5 6.6 6.5 6.5 6.4 6.4 6.5 6.5 6.6 5.3 3.5 4.0 3.2 3.0
Wind_Speed
14 14 14 14 15 16 16 16 16 17 15 14 13 12 13 15 16 3 6 10 8 10 8 9 4 5 4 3 4 2 3 3 3 1 4 5 2 5 6 11 3 3 4 8 13
15 15 16 16 17 17 17 17 16 16 15 13 12 11 11 13 3 8 10 17 16 15 6 8 6 8 3 3 3 3 2 5 6 4 5 2 4 5 4 8 3 8 11 15 13
16 17 17 19 18 18 18 17 17 16 14 11 9 9 9 9 3 7 4 20 20 16 4 6 5 4 3 2 6 5 6 4 6 7 4 4 2 1 14 2 8 15 16 14 13
17 18 19 19 19 18 18 18 17 15 14 10 8 6 7 1 2 1 5 22 17 13 6 6 4 5 3 4 6 6 5 5 2 8 7 5 2 6 7 5 10 16 19 15 15
19 20 20 19 19 18 18 18 17 14 12 8 6 4 2 1 8 3 9 19 9 7 7 6 4 4 3 2 6 5 7 6 3 7 1 4 6 5 6 12 13 14 17 16 13
20 20 21 21 20 19 19 19 18 15 11 6 3 4 2 3 4 6 10 8 6 7 6 6 6 5 2 4 4 6 8 2 2 8 5 3 3 4 2 13 15 17 16 14 15
21 21 22 22 22 21 22 21 19 16 10 6 7 4 2 12 4 7 9 6 6 6 5 5 4 3 2 7 1 5 4 1 4 9 5 5 5 8 5 17 18 17 16 15 15
22 22 22 23 23 23 24 24 21 15 5 6 9 2 7 4 2 3 2 2 2 3 2 4 4 2 3 3 1 3 4 3 5 6 3 8 6 7 10 18 17 17 14 14 15
21 22 23 24 23 23 24 25 19 2 7 11 3 2 8 2 3 7 6 5 4 1 1 4 2 4 3 4 4 3 3 1 4 6 4 11 4 6 12 15 15 16 15 14 13
23 22 23 24 24 22 24 20 2 9 6 4 3 2 5 3 4 6 4 5 4 4 1 4 4 2 3 4 4 5 1 3 5 4 5 9 6 3 11 13 17 15 15 15 15
26 25 25 26 25 21 11 2 2 1 3 8 6 4 5 5 2 3 6 6 2 4 4 1 3 8 9 6 3 2 3 5 5 6 6 12 10 9 11 13 13 9 9 13 18
27 28 27 29 27 23 4 2 3 2 8 12 14 9 4 4 5 2 7 6 5 5 3 4 7 10 4 4 4 5 6 8 8 5 5 4 16 5 10 16 16 14 12 13 13
27 28 28 30 31 2 2 5 3 4 2 7 6 6 5 9 8 7 11 6 5 6 6 7 9 4 5 5 5 6 5 6 11 1 5 2 6 6 8 6 8 8 8 12 19
27 26 26 31 0 4 4 3 7 3 4 6 3 6 6 8 4 9 9 6 2 11 8 6 7 9 5 7 8 6 10 15 11 4 5 11 5 6 3 7 10 14 12 13 17
28 25 22 9 5 2 4 7 7 3 2 1 2 2 5 9 3 4 6 4 9 7 7 9 2 5 5 12 7 12 8 10 9 9 3 2 3 7 2 6 14 10 11 14 17
31 24 18 2 2 6 12 8 3 5 3 4 4 5 4 2 1 4 5 4 3 5 1 8 3 6 8 9 6 12 4 7 5 4 1 9 6 6 5 9 11 15 13 15 16
34 29 8 3 3 2 5 4 4 3 5 6 4 2 3 6 3 3 6 7 6 4 6 4 6 5 6 5 1 4 6 3 3 2 6 2 5 9 8 10 18 20 17 15 18
37 29 8 4 5 5 3 5 2 3 4 4 3 2 5 2 3 2 6 8 6 4 3 5 8 8 5 8 6 7 9 6 7 4 6 0 5 7 7 7 7 12 14 17 15
29 3 2 4 13 1 5 3 5 5 3 8 8 4 3 2 2 3 7 5 8 11 9 6 6 4 5 5 9 3 3 4 7 3 2 4 7 10 7 6 6 9 10 16 14
4 4 4 5 12 4 4 4 4 3 5 3 2 3 2 2 2 2 3 3 6 12 6 4 7 7 4 4 3 6 7 2 3 4 4 5 5 5 7 10 9 8 11 13 15
3 3 3 5 2 5 3 6 5 6 4 4 4 4 3 1 2 1 3 5 3 4 11 7 5 13 3 4 8 1 2 6 5 5 6 3 6 8 10 10 11 11 12 15 15
4 2 3 2 3 2 1 4 5 7 6 6 4 8 4 4 4 4 5 2 10 3 1 5 6 13 14 4 2 3 8 7 5 5 3 3 7 3 8 10 8 9 9 7 13
2 3 4 4 1 2 5 5 3 4 5 5 4 2 1 4 1 4 1 4 9 6 2 2 1 2 9 5 2 4 5 6 4 4 6 6 8 3 7 8 4 7 6 7 5
2 3 4 4 2 2 4 4 6 6 4 5 5 3 4 2 2 1 3 3 5 6 5 5 3 5 6 7 1 3 4 4 6 4 3 6 7 7 9 7 4 5 3 6 6
3 1 2 3 3 3 2 3 5 7 5 8 5 6 5 2 3 2 3 5 3 8 6 4 2 2 7 8 4 3 5 6 5 6 5 6 9 9 10 11 6 7 8 8 10
2 3 4 2 3 5 5 3 4 5 3 5 5 6 6 4 2 1 2 2 1 5 5 5 1 1 4 4 2 6 8 6 5 5 4 3 6 7 4 5 6 7 8 11 6
3 2 2 3 4 2 2 3 4 7 5 3 5 3 1 3 4 5 5 3 4 4 1 2 2 3 5 5 6 4 6 6 3 4 6 5 9 3 3 6 8 10 7 8 7
Wind_Direction
356 353 348 345 340 336 333 332 329 332 333 328 322 320 321 322 317 156 237 218 191 173 118 125 134 198 193 212 125 118 59 150 256 114 278 341 16 118 91 136 188 158 130 129 129
353 348 345 340 338 335 332 330 328 329 331 324 314 312 316 328 297 251 228 213 198 162 135 163 156 180 178 203 120 113 152 229 194 158 246 3 42 139 112 159 71 84 103 122 130
349 347 342 335 335 333 331 329 328 327 330 323 312 301 309 320 313 246 205 198 189 178 168 159 134 168 186 169 177 176 199 208 225 218 248 322 14 84 133 238 184 160 149 147 145
346 337 334 333 332 331 328 325 324 326 328 321 308 289 303 275 194 108 284 184 188 169 159 141 135 156 208 201 186 200 223 164 170 191 181 207 168 112 165 209 174 163 153 155 163
339 337 334 331 331 329 326 321 322 322 321 314 299 256 280 30 252 319 108 157 136 157 157 142 151 174 217 254 169 233 179 227 230 126 274 111 215 132 229 147 152 165 156 167 176
338 335 332 330 329 326 323 318 319 319 311 296 253 207 174 270 242 166 130 149 156 154 148 157 193 191 274 270 198 180 175 219 174 144 155 177 318 15 152 148 160 168 172 178 182
336 334 331 329 327 324 321 314 317 313 299 276 192 203 159 236 22 140 131 177 170 170 148 195 180 82 348 322 229 81 99 131 270 157 178 146 287 224 193 165 167 180 179 187 192
333 332 329 327 323 320 317 314 315 305 275 160 168 227 245 243 285 255 168 112 218 234 130 174 151 129 176 244 109 90 86 209 183 143 222 144 243 206 163 168 178 189 188 193 196
331 329 326 324 319 318 315 316 315 249 144 143 129 163 268 309 170 216 171 173 137 327 304 288 173 183 61 91 22 351 240 263 310 210 158 185 240 166 159 177 189 194 196 196 201
332 327 323 320 319 319 321 312 124 110 135 198 258 353 280 197 193 187 176 155 151 116 26 150 66 119 66 87 203 231 207 278 253 209 184 215 227 148 176 188 195 198 194 195 199
330 326 324 320 320 319 334 43 38 45 225 199 193 239 280 281 153 172 150 134 107 90 158 55 98 228 235 172 159 311 238 245 249 200 179 214 250 191 174 210 208 208 198 190 201
326 324 325 321 320 322 156 124 114 232 296 230 236 246 261 54 344 257 113 138 143 185 103 21 240 232 253 157 197 224 253 268 289 190 186 210 241 231 183 209 207 202 206 187 189
324 324 327 323 320 128 249 235 338 317 239 290 193 200 197 148 203 246 153 154 143 148 176 175 226 154 178 254 236 238 210 243 242 60 206 32 285 195 234 218 182 201 196 189 184
324 325 329 327 49 324 271 292 312 216 40 275 236 256 151 155 226 212 172 138 155 189 156 221 249 232 193 239 162 261 207 242 247 159 226 166 255 290 240 216 208 204 203 200 191
324 326 325 322 298 265 294 324 322 65 3 94 158 99 165 157 167 223 165 72 171 184 124 240 228 175 206 236 149 233 167 206 230 196 72 190 104 268 5 237 229 198 195 199 196
320 324 325 129 213 246 312 316 45 39 257 346 123 159 139 258 287 107 136 88 170 145 256 229 238 166 222 259 205 257 121 38 48 92 122 243 169 271 204 217 236 203 191 193 197
321 317 295 226 227 324 312 42 45 139 329 348 359 178 160 182 198 123 152 191 172 139 249 315 246 224 182 248 357 100 63 303 334 352 213 217 137 233 246 236 219 211 193 192 197
324 316 187 214 252 328 53 57 159 246 285 327 304 227 130 118 282 114 132 196 257 130 103 189 310 178 182 175 212 198 159 160 218 226 254 172 222 253 225 272 224 233 203 194 192
325 338 164 257 198 342 74 83 216 218 324 324 323 82 33 33 105 150 193 213 210 179 182 172 265 270 210 178 144 212 208 198 108 24 39 240 288 307 278 266 209 219 196 199 188
332 339 283 134 158 71 79 230 243 234 333 352 316 33 149 301 84 76 213 226 232 198 169 231 303 201 250 165 226 165 159 80 11 147 240 285 279 240 290 251 237 207 200 204 198
19 32 308 191 95 50 150 232 269 261 7 322 271 280 182 245 140 198 224 283 118 306 180 157 152 266 43 189 216 139 186 48 119 142 178 228 265 222 246 245 226 215 201 193 196
356 55 320 13 47 31 179 215 294 295 299 262 234 207 169 170 195 231 218 311 337 301 233 214 185 247 230 216 264 229 208 148 134 249 232 177 260 243 264 271 227 205 194 196 193
27 270 307 90 97 320 302 297 265 315 308 13 311 329 244 169 128 210 31 60 27 43 52 184 247 284 295 324 17 203 197 128 104 77 200 162 263 278 302 298 41 185 183 200 182
46 7 331 41 65 102 349 287 321 315 284 341 264 334 16 350 350 19 358 3 359 12 1 127 116 166 216 236 199 193 195 154 125 122 188 218 275 287 269 262 153 140 157 164 185
31 340 169 331 340 345 285 320 332 359 328 359 344 351 265 212 43 79 6 338 15 351 13 75 141 350 277 257 257 237 243 178 153 180 161 257 193 245 237 225 171 172 161 179 195
47 22 351 286 314 334 3 10 338 340 275 341 357 344 47 96 120 288 51 96 131 337 24 357 279 348 277 298 301 244 246 244 216 147 231 177 270 242 154 105 148 161 187 191 148
327 340 100 300 343 1 149 321 323 347 294 5 307 300 261 182 212 209 191 214 210 158 296 35 51 40 263 316 312 289 233 217 201 190 158 163 230 242 196 193 195 198 180 176 147